timestamp,wind_dir_avg,wind_spd_avg,wind_spd_max_dir,wind_spd_gust,battery_voltage,lat,long
2021-03-17 00:04:01+00:00,9.0,13.37,0.0,15.56,12.49,47.59359,-54.27349
2021-03-17 00:14:01+00:00,5.0,13.92,11.0,15.71,12.41,47.59359,-54.27349
2021-03-17 00:24:01+00:00,16.0,15.84,18.0,17.63,12.41,47.59359,-54.27349
2021-03-17 00:34:01+00:00,12.0,13.23,22.0,15.05,12.41,47.59359,-54.27349
2021-03-17 00:44:01+00:00,348.0,12.49,341.0,16.99,12.41,47.59359,-54.27349
2021-03-17 00:54:01+00:00,0.0,12.28,345.0,14.78,12.41,47.59359,-54.27349
2021-03-17 01:04:01+00:00,349.0,12.87,345.0,15.47,12.41,47.59359,-54.27349
2021-03-17 01:14:01+00:00,12.0,12.58,19.0,15.32,12.41,47.59359,-54.27349
2021-03-17 01:24:01+00:00,347.0,10.62,345.0,12.6,12.41,47.59359,-54.27349
2021-03-17 01:34:01+00:00,350.0,10.54,346.0,13.54,12.41,47.59359,-54.27349
2021-03-17 01:44:01+00:00,10.0,13.25,10.0,16.17,12.41,47.59359,-54.27349
2021-03-17 01:54:01+00:00,352.0,13.01,345.0,15.52,12.41,47.59359,-54.27349
2021-03-17 02:04:01+00:00,14.0,14.58,17.0,16.97,12.41,47.59359,-54.27349
2021-03-17 02:14:01+00:00,11.0,13.07,19.0,15.52,12.41,47.59359,-54.27349
2021-03-17 02:24:01+00:00,357.0,11.43,347.0,13.71,12.41,47.59359,-54.27349
2021-03-17 02:34:01+00:00,346.0,11.14,342.0,14.84,12.41,47.59359,-54.27349
2021-03-17 02:44:01+00:00,352.0,11.0,356.0,13.81,12.41,47.59359,-54.27349
2021-03-17 02:54:01+00:00,342.0,12.32,340.0,14.82,12.41,47.59359,-54.27349
2021-03-17 03:04:01+00:00,344.0,10.1,342.0,12.12,12.41,47.59359,-54.27349
2021-03-17 03:14:01+00:00,348.0,12.73,346.0,13.96,12.33,47.59359,-54.27349
2021-03-17 03:24:01+00:00,355.0,12.33,359.0,13.86,12.33,47.59359,-54.27349
2021-03-17 03:34:01+00:00,341.0,11.13,341.0,13.69,12.33,47.59359,-54.27349
2021-03-17 03:44:01+00:00,342.0,10.59,344.0,12.65,12.33,47.59359,-54.27349
2021-03-17 03:54:01+00:00,355.0,11.16,352.0,12.52,12.33,47.59359,-54.27349
2021-03-17 04:04:01+00:00,2.0,12.54,19.0,14.12,12.33,47.59359,-54.27349
2021-03-17 04:14:01+00:00,350.0,12.48,341.0,14.39,12.33,47.59359,-54.27349
2021-03-17 04:24:01+00:00,342.0,11.79,342.0,14.94,12.33,47.59359,-54.27349
2021-03-17 04:34:01+00:00,343.0,10.72,344.0,12.65,12.33,47.59359,-54.27349
2021-03-17 04:44:01+00:00,345.0,12.88,344.0,15.7,12.33,47.59359,-54.27349
2021-03-17 04:54:01+00:00,340.0,10.09,341.0,11.95,12.33,47.59359,-54.27349
2021-03-17 05:04:01+00:00,352.0,10.12,358.0,11.43,12.33,47.59359,-54.27349
2021-03-17 05:14:01+00:00,0.0,10.5,359.0,12.51,12.33,47.59359,-54.27349
2021-03-17 05:24:01+00:00,357.0,10.95,1.0,12.38,12.33,47.59359,-54.27349
2021-03-17 05:34:01+00:00,345.0,11.42,342.0,13.86,12.33,47.59359,-54.27349
2021-03-17 05:44:01+00:00,345.0,10.16,342.0,11.34,12.33,47.59359,-54.27349
2021-03-17 05:54:01+00:00,345.0,10.05,344.0,12.04,12.33,47.59359,-54.27349
2021-03-17 06:04:01+00:00,343.0,8.98,343.0,11.07,12.33,47.59359,-54.27349
2021-03-17 06:14:01+00:00,339.0,7.67,332.0,9.45,12.33,47.59359,-54.27349
2021-03-17 06:24:01+00:00,351.0,7.46,348.0,8.63,12.33,47.59359,-54.27349
2021-03-17 06:34:01+00:00,347.0,8.05,345.0,9.16,12.33,47.59359,-54.27349
2021-03-17 06:44:01+00:00,343.0,7.43,345.0,8.56,12.33,47.59359,-54.27349
2021-03-17 06:54:01+00:00,331.0,7.04,327.0,8.38,12.33,47.59359,-54.27349
2021-03-17 07:04:01+00:00,346.0,8.01,342.0,9.32,12.33,47.59359,-54.27349
2021-03-17 07:14:01+00:00,342.0,8.75,340.0,10.15,12.25,47.59359,-54.27349
2021-03-17 07:24:01+00:00,336.0,9.26,343.0,10.71,12.25,47.59359,-54.27349
2021-03-17 07:34:01+00:00,335.0,10.13,332.0,12.28,12.25,47.59359,-54.27349
2021-03-17 07:44:01+00:00,332.0,9.16,329.0,10.78,12.25,47.59359,-54.27349
2021-03-17 07:54:01+00:00,339.0,8.77,339.0,9.88,12.25,47.59359,-54.27349
2021-03-17 08:04:01+00:00,332.0,10.03,333.0,11.6,12.25,47.59359,-54.27349
2021-03-17 08:14:01+00:00,336.0,10.06,338.0,12.23,12.17,47.59359,-54.27349
2021-03-17 08:24:01+00:00,336.0,10.98,335.0,12.24,12.17,47.59359,-54.27349
2021-03-17 08:34:01+00:00,332.0,10.9,332.0,12.84,12.17,47.59359,-54.27349
2021-03-17 08:44:01+00:00,332.0,9.42,330.0,11.85,12.17,47.59359,-54.27349
2021-03-17 08:54:01+00:00,327.0,11.03,326.0,12.4,12.17,47.59359,-54.27349
2021-03-17 09:04:01+00:00,326.0,10.85,325.0,12.4,12.17,47.59359,-54.27349
2021-03-17 09:14:01+00:00,323.0,11.04,324.0,12.25,12.17,47.59359,-54.27349
2021-03-17 09:24:01+00:00,325.0,11.12,322.0,12.45,12.17,47.59359,-54.27349
2021-03-17 09:34:01+00:00,320.0,11.38,321.0,12.54,12.17,47.59359,-54.27349
2021-03-17 09:44:01+00:00,320.0,9.97,320.0,11.95,12.17,47.59359,-54.27349
2021-03-17 09:54:01+00:00,325.0,10.46,330.0,12.18,12.17,47.59359,-54.27349
2021-03-17 10:04:01+00:00,320.0,9.29,309.0,11.25,12.17,47.59359,-54.27349
2021-03-17 10:14:01+00:00,318.0,9.91,317.0,11.86,12.17,47.59359,-54.27349
2021-03-17 10:24:01+00:00,324.0,9.68,320.0,10.97,12.17,47.59359,-54.27349
2021-03-17 10:34:01+00:00,321.0,10.31,325.0,11.63,12.17,47.59359,-54.27349
2021-03-17 10:44:01+00:00,324.0,10.22,320.0,11.82,12.17,47.59359,-54.27349
2021-03-17 10:54:01+00:00,324.0,10.15,323.0,11.62,12.17,47.59359,-54.27349
2021-03-17 11:04:01+00:00,328.0,9.8,329.0,11.13,12.17,47.59359,-54.27349
2021-03-17 11:14:01+00:00,328.0,9.01,326.0,10.39,13.92,47.59359,-54.27349
2021-03-17 11:24:01+00:00,333.0,7.97,337.0,9.35,13.92,47.59359,-54.27349
2021-03-17 11:34:01+00:00,336.0,7.14,328.0,8.74,13.92,47.59359,-54.27349
2021-03-17 11:44:01+00:00,344.0,5.8,341.0,7.35,13.92,47.59359,-54.27349
2021-03-17 11:54:01+00:00,328.0,4.37,336.0,5.04,13.92,47.59359,-54.27349
2021-03-17 12:04:01+00:00,303.0,3.7,303.0,4.66,13.92,47.59359,-54.27349
2021-03-17 12:14:01+00:00,318.0,4.36,310.0,7.13,14.32,47.59359,-54.27349
2021-03-17 12:24:01+00:00,330.0,5.87,328.0,6.7,14.32,47.59359,-54.27349
2021-03-17 12:34:01+00:00,341.0,5.88,345.0,6.84,14.32,47.59359,-54.27349
2021-03-17 12:44:01+00:00,314.0,5.91,313.0,7.3,14.32,47.59359,-54.27349
2021-03-17 12:54:01+00:00,324.0,5.77,323.0,6.68,14.32,47.59359,-54.27349
2021-03-17 13:04:01+00:00,345.0,5.41,345.0,6.59,14.32,47.59359,-54.27349
2021-03-17 13:14:01+00:00,353.0,3.31,0.0,4.28,13.84,47.59359,-54.27349
2021-03-17 13:24:01+00:00,358.0,2.7,357.0,3.28,13.84,47.59359,-54.27349
2021-03-17 13:34:01+00:00,352.0,3.21,345.0,3.97,13.84,47.59359,-54.27349
2021-03-17 13:44:01+00:00,251.0,4.03,247.0,4.61,13.84,47.59359,-54.27349
2021-03-17 13:54:01+00:00,229.0,1.76,232.0,2.34,13.84,47.59359,-54.27349
2021-03-17 14:04:01+00:00,259.0,0.91,239.0,1.45,13.84,47.59359,-54.27349
2021-03-17 14:14:01+00:00,277.0,2.65,273.0,3.58,13.68,47.59359,-54.27349
2021-03-17 14:24:01+00:00,273.0,2.96,271.0,3.98,13.68,47.59359,-54.27349
2021-03-17 14:34:01+00:00,307.0,1.85,326.0,2.42,13.68,47.59359,-54.27349
2021-03-17 14:44:01+00:00,297.0,2.0,296.0,2.73,13.68,47.59359,-54.27349
2021-03-17 14:54:01+00:00,303.0,1.95,309.0,2.38,13.68,47.59359,-54.27349
2021-03-17 15:04:01+00:00,219.0,2.58,223.0,3.5,13.68,47.59359,-54.27349
2021-03-17 15:14:01+00:00,206.0,2.35,206.0,3.18,13.68,47.59359,-54.27349
2021-03-17 15:24:01+00:00,215.0,1.92,214.0,2.78,13.68,47.59359,-54.27349
2021-03-17 15:34:01+00:00,209.0,1.05,215.0,1.52,13.68,47.59359,-54.27349
2021-03-17 15:44:01+00:00,242.0,3.15,248.0,4.03,13.68,47.59359,-54.27349
2021-03-17 15:54:01+00:00,277.0,8.13,285.0,9.26,13.68,47.59359,-54.27349
2021-03-17 16:04:01+00:00,248.0,5.88,249.0,7.41,13.68,47.59359,-54.27349
2021-03-17 16:14:01+00:00,265.0,7.13,260.0,8.5,13.76,47.59359,-54.27349
2021-03-17 16:24:01+00:00,266.0,5.97,265.0,7.46,13.76,47.59359,-54.27349
2021-03-17 16:34:01+00:00,176.0,3.69,184.0,5.99,13.76,47.59359,-54.27349
2021-03-17 16:44:01+00:00,203.0,2.78,217.0,4.08,13.76,47.59359,-54.27349
2021-03-17 16:54:01+00:00,261.0,3.92,275.0,5.31,13.76,47.59359,-54.27349
2021-03-17 17:04:01+00:00,294.0,6.24,299.0,7.71,13.76,47.59359,-54.27349
2021-03-17 17:14:01+00:00,269.0,5.0,262.0,5.68,13.84,47.59359,-54.27349
2021-03-17 17:24:01+00:00,292.0,8.16,297.0,9.84,13.84,47.59359,-54.27349
2021-03-17 17:34:01+00:00,285.0,8.38,281.0,9.45,13.84,47.59359,-54.27349
2021-03-17 17:44:01+00:00,281.0,7.91,286.0,9.08,13.84,47.59359,-54.27349
2021-03-17 17:54:01+00:00,263.0,6.83,262.0,7.75,13.84,47.59359,-54.27349
2021-03-17 18:04:01+00:00,265.0,5.66,267.0,6.49,13.84,47.59359,-54.27349
2021-03-17 18:14:01+00:00,273.0,6.65,274.0,7.4,13.92,47.59359,-54.27349
2021-03-17 18:24:01+00:00,254.0,9.34,248.0,11.64,13.92,47.59359,-54.27349
2021-03-17 18:34:01+00:00,255.0,9.8,254.0,10.5,13.92,47.59359,-54.27349
2021-03-17 18:44:01+00:00,248.0,9.7,247.0,11.14,13.92,47.59359,-54.27349
2021-03-17 18:54:01+00:00,254.0,9.98,252.0,11.13,13.92,47.59359,-54.27349
2021-03-17 19:04:01+00:00,255.0,8.06,253.0,9.5,13.92,47.59359,-54.27349
2021-03-17 19:14:01+00:00,277.0,10.58,282.0,11.68,13.84,47.59359,-54.27349
2021-03-17 19:24:01+00:00,271.0,8.62,277.0,10.53,13.84,47.59359,-54.27349
2021-03-17 19:34:01+00:00,270.0,7.42,268.0,8.52,13.84,47.59359,-54.27349
2021-03-17 19:44:01+00:00,290.0,8.78,291.0,9.79,13.84,47.59359,-54.27349
2021-03-17 19:54:01+00:00,291.0,8.06,295.0,9.22,13.84,47.59359,-54.27349
2021-03-17 20:04:01+00:00,283.0,7.73,284.0,8.67,13.84,47.59359,-54.27349
2021-03-17 20:14:01+00:00,280.0,9.84,284.0,11.2,13.76,47.59359,-54.27349
2021-03-17 20:24:01+00:00,282.0,8.35,287.0,10.15,13.76,47.59359,-54.27349
2021-03-17 20:34:01+00:00,279.0,9.08,279.0,10.63,13.76,47.59359,-54.27349
2021-03-17 20:44:01+00:00,271.0,8.15,276.0,9.6,13.76,47.59359,-54.27349
2021-03-17 20:54:01+00:00,265.0,6.5,261.0,7.51,13.76,47.59359,-54.27349
2021-03-17 21:04:01+00:00,286.0,7.92,287.0,8.92,13.76,47.59359,-54.27349
2021-03-17 21:14:01+00:00,286.0,7.06,283.0,7.87,13.6,47.59359,-54.27349
2021-03-17 21:24:01+00:00,283.0,6.38,284.0,7.47,13.6,47.59359,-54.27349
2021-03-17 21:34:01+00:00,260.0,5.37,260.0,6.05,13.6,47.59359,-54.27349
2021-03-17 21:44:01+00:00,270.0,6.74,269.0,9.28,13.6,47.59359,-54.27349
2021-03-17 21:54:01+00:00,280.0,6.75,279.0,7.96,13.6,47.59359,-54.27349
2021-03-17 22:04:01+00:00,281.0,6.3,270.0,8.67,13.6,47.59359,-54.27349
2021-03-17 22:14:01+00:00,270.0,9.32,272.0,10.03,12.89,47.59359,-54.27349
2021-03-17 22:24:01+00:00,273.0,6.35,267.0,7.24,12.89,47.59359,-54.27349
2021-03-17 22:34:01+00:00,270.0,6.66,270.0,7.55,12.89,47.59359,-54.27349
2021-03-17 22:44:01+00:00,294.0,6.94,292.0,7.92,12.89,47.59359,-54.27349
2021-03-17 22:54:01+00:00,307.0,4.46,306.0,5.29,12.89,47.59359,-54.27349
2021-03-17 23:04:01+00:00,284.0,4.35,286.0,5.16,12.89,47.59359,-54.27349
2021-03-17 23:14:01+00:00,282.0,6.47,292.0,7.95,12.57,47.59359,-54.27349
2021-03-17 23:24:01+00:00,295.0,6.06,293.0,7.33,12.57,47.59359,-54.27349
2021-03-17 23:34:01+00:00,273.0,6.24,271.0,7.16,12.57,47.59359,-54.27349
2021-03-17 23:44:01+00:00,274.0,5.48,276.0,6.16,12.57,47.59359,-54.27349
2021-03-17 23:54:01+00:00,283.0,4.8,284.0,6.14,12.57,47.59359,-54.27349
